Погода в Перевалове

Россия / Тюменская область     57°05′01″N   65°14′01″E
темп.,
°C
ветер,
м/с
пор.,
м/с
влажн.,
%
обл.,
%
осадки,
мм/ч
давл.,
гПа
погр.,
м
26 февраля, пт
пт2623:00−25зсз129995 0.0 102819
02:00−27з229983 0.0 102819
05:00−28зюз129948 0.0 102919
08:00−28зюз1110095 0.0 102919
11:00−20ююз118984 0.0 1029245
14:00−16ююз128197 0.0 1029602
17:00−17ю349299 0.1 1029344
20:00−23ю239759 0.0 102945
27 февраля, сб
сб2723:00−24ю2310044 0.0 102828
02:00−27ю239668 0.0 102871
05:00−29ююв259673 0.0 1027105
08:00−30ююв379639 0.0 1026173
11:00−24ююв369119 0.0 1026285
14:00−21юв47890 0.0 1024357
17:00−20вюв49912 0.0 1022386
20:00−20юв4119696 0.1 1020444
28 февраля, вс
вс2823:00−19вюв499698 0.6 1018420
02:00−18вюв41096100 0.8 1016430
05:00−17в4994100 1.2 1014421
08:00−16в51095100 0.4 1013457
11:00−15в4892100 0.9 1012495
14:00−13в4890100 0.3 1011588
17:00−13всв4892100 0.4 1011584
20:00−15всв4894100 0.1 1011384
1 марта, пн
пн123:00−16св3795100 0.2 1012362
02:00−18ссв379799 0.1 1012236
05:00−18ссв3796100 0.1 1013266
08:00−19ссв3696100 0.1 1014270
11:00−16с3592100 0.1 1015420
14:00−14с3589100 0.1 1016536
17:00−14ссз3590100 0.1 1016590
20:00−17сз2397100 0.1 101746
2 марта, вт
вт223:00−20зсз239994 0.1 101928
02:00−21з239982 0.0 101728
05:00−22зюз239950 0.0 101734
08:00−22юз25980 0.0 101698
11:00−15ююз37910 0.0 1014271
14:00−11ююз488719 0.0 1013429
17:00−12ююз5118859 0.0 1011437
20:00−13ююз51189100 0.0 1010428